Time,TemperatureF,DewpointF,PressureIn,WindDirection,WindDirectionDegrees,WindSpeedMPH,WindSpeedGustMPH,Humidity,HourlyPrecipIn,Conditions,Clouds,dailyrainin,SoftwareType,DateUTC
2013-04-14 00:00:00,39.8,37.9,30.05,NNE,23,0.0,1.0,93,0.06,,,0.00,WUHU216DAVISVP2,2013-04-14 07:00:00,
2013-04-14 00:05:00,39.7,37.8,30.05,ESE,121,0.0,0.0,93,0.06,,,0.00,WUHU216DAVISVP2,2013-04-14 07:05:00,
2013-04-14 00:10:00,39.7,37.8,30.04,SSW,203,0.0,2.0,93,0.05,,,0.00,WUHU216DAVISVP2,2013-04-14 07:10:00,
2013-04-14 00:15:00,39.6,37.7,30.05,SSW,204,0.0,2.0,93,0.05,,,0.00,WUHU216DAVISVP2,2013-04-14 07:15:00,
2013-04-14 00:20:00,39.7,37.8,30.05,SW,225,0.0,2.0,93,0.05,,,0.00,WUHU216DAVISVP2,2013-04-14 07:20:00,
2013-04-14 00:25:00,39.7,37.8,30.05,SW,225,0.0,2.0,93,0.05,,,0.01,WUHU216DAVISVP2,2013-04-14 07:25:00,
2013-04-14 00:30:00,39.6,37.7,30.05,NNE,30,1.0,2.0,93,0.04,,,0.01,WUHU216DAVISVP2,2013-04-14 07:30:00,
2013-04-14 00:35:00,39.6,37.7,30.05,NNW,343,0.0,2.0,93,0.03,,,0.01,WUHU216DAVISVP2,2013-04-14 07:35:00,
2013-04-14 00:40:00,39.6,37.7,30.05,NNW,342,0.0,2.0,93,0.03,,,0.01,WUHU216DAVISVP2,2013-04-14 07:40:00,
2013-04-14 00:45:00,39.6,37.7,30.05,East,89,0.0,2.0,93,0.02,,,0.01,WUHU216DAVISVP2,2013-04-14 07:45:00,
2013-04-14 00:50:00,39.6,37.7,30.05,East,89,0.0,0.0,93,0.03,,,0.02,WUHU216DAVISVP2,2013-04-14 07:50:00,
2013-04-14 00:55:00,39.6,37.7,30.05,West,262,0.0,0.0,93,0.03,,,0.02,WUHU216DAVISVP2,2013-04-14 07:55:00,
2013-04-14 01:00:00,39.6,38.0,30.05,West,263,0.0,0.0,94,0.02,,,0.02,WUHU216DAVISVP2,2013-04-14 08:00:00,
2013-04-14 01:05:00,39.6,38.0,30.05,NNW,329,0.0,0.0,94,0.02,,,0.02,WUHU216DAVISVP2,2013-04-14 08:05:00,
2013-04-14 01:10:00,39.5,37.9,30.05,NNW,335,0.0,1.0,94,0.03,,,0.03,WUHU216DAVISVP2,2013-04-14 08:10:00,
2013-04-14 01:15:00,39.4,37.8,30.05,NNW,328,0.0,1.0,94,0.04,,,0.04,WUHU216DAVISVP2,2013-04-14 08:15:00,
2013-04-14 01:20:00,39.3,37.7,30.05,NNW,327,0.0,1.0,94,0.04,,,0.04,WUHU216DAVISVP2,2013-04-14 08:20:00,
2013-04-14 01:25:00,39.4,37.8,30.05,ESE,105,0.0,1.0,94,0.03,,,0.04,WUHU216DAVISVP2,2013-04-14 08:25:00,
2013-04-14 01:30:00,39.5,37.9,30.04,SSE,156,3.0,3.0,94,0.03,,,0.04,WUHU216DAVISVP2,2013-04-14 08:30:00,
2013-04-14 01:35:00,39.5,37.9,30.04,SE,134,2.0,4.0,94,0.03,,,0.04,WUHU216DAVISVP2,2013-04-14 08:35:00,
2013-04-14 01:40:00,39.5,37.9,30.04,East,83,1.0,4.0,94,0.03,,,0.04,WUHU216DAVISVP2,2013-04-14 08:40:00,
2013-04-14 01:45:00,39.5,37.9,30.04,SE,132,1.0,4.0,94,0.03,,,0.04,WUHU216DAVISVP2,2013-04-14 08:45:00,
2013-04-14 01:50:00,39.5,37.9,30.04,ENE,69,1.0,4.0,94,0.02,,,0.04,WUHU216DAVISVP2,2013-04-14 08:50:00,
2013-04-14 01:55:00,39.5,37.9,30.04,East,84,1.0,4.0,94,0.02,,,0.04,WUHU216DAVISVP2,2013-04-14 08:55:00,
2013-04-14 02:00:00,39.5,37.9,30.04,SE,125,1.0,4.0,94,0.02,,,0.04,WUHU216DAVISVP2,2013-04-14 09:00:00,
2013-04-14 02:05:00,39.5,37.9,30.05,SE,139,0.0,3.0,94,0.03,,,0.05,WUHU216DAVISVP2,2013-04-14 09:05:00,
2013-04-14 02:10:00,39.4,37.8,30.05,ENE,60,0.0,5.0,94,0.02,,,0.05,WUHU216DAVISVP2,2013-04-14 09:10:00,
2013-04-14 02:15:00,39.3,37.7,30.05,East,84,1.0,5.0,94,0.01,,,0.05,WUHU216DAVISVP2,2013-04-14 09:15:00,
2013-04-14 02:20:00,39.3,37.7,30.05,ENE,75,1.0,5.0,94,0.01,,,0.05,WUHU216DAVISVP2,2013-04-14 09:20:00,
2013-04-14 02:25:00,39.2,37.6,30.05,ENE,73,3.0,5.0,94,0.01,,,0.05,WUHU216DAVISVP2,2013-04-14 09:25:00,
2013-04-14 02:30:00,39.1,37.5,30.05,ESE,120,0.0,4.0,94,0.01,,,0.05,WUHU216DAVISVP2,2013-04-14 09:30:00,
2013-04-14 02:35:00,38.9,37.3,30.05,ENE,73,2.0,4.0,94,0.01,,,0.05,WUHU216DAVISVP2,2013-04-14 09:35:00,
2013-04-14 02:40:00,38.9,37.3,30.05,SE,128,2.0,5.0,94,0.01,,,0.05,WUHU216DAVISVP2,2013-04-14 09:40:00,
2013-04-14 02:45:00,38.8,37.2,30.05,SSE,156,0.0,5.0,94,0.01,,,0.05,WUHU216DAVISVP2,2013-04-14 09:45:00,
2013-04-14 02:50:00,38.8,37.2,30.05,SSE,154,1.0,4.0,94,0.01,,,0.05,WUHU216DAVISVP2,2013-04-14 09:50:00,
2013-04-14 02:55:00,38.8,37.2,30.05,ESE,118,1.0,4.0,94,0.01,,,0.05,WUHU216DAVISVP2,2013-04-14 09:55:00,
2013-04-14 03:00:00,38.8,37.2,30.05,SE,139,2.0,4.0,94,0.01,,,0.05,WUHU216DAVISVP2,2013-04-14 10:00:00,
2013-04-14 03:05:00,38.8,36.9,30.05,East,82,1.0,4.0,93,0.00,,,0.05,WUHU216DAVISVP2,2013-04-14 10:05:00,
2013-04-14 03:10:00,38.8,36.9,30.05,ENE,72,0.0,4.0,93,0.00,,,0.05,WUHU216DAVISVP2,2013-04-14 10:10:00,
2013-04-14 03:15:00,38.8,36.9,30.05,SSE,159,1.0,4.0,93,0.00,,,0.05,WUHU216DAVISVP2,2013-04-14 10:15:00,
2013-04-14 03:20:00,38.8,36.9,30.05,East,93,0.0,3.0,93,0.00,,,0.05,WUHU216DAVISVP2,2013-04-14 10:20:00,
2013-04-14 03:25:00,38.8,36.9,30.04,East,80,0.0,3.0,93,0.00,,,0.05,WUHU216DAVISVP2,2013-04-14 10:25:00,
2013-04-14 03:30:00,38.8,36.9,30.04,East,89,0.0,2.0,93,0.00,,,0.05,WUHU216DAVISVP2,2013-04-14 10:30:00,
2013-04-14 03:35:00,38.8,37.2,30.04,East,82,1.0,2.0,94,0.00,,,0.05,WUHU216DAVISVP2,2013-04-14 10:35:00,
2013-04-14 03:40:00,38.7,37.1,30.04,East,81,1.0,2.0,94,0.00,,,0.05,WUHU216DAVISVP2,2013-04-14 10:40:00,
2013-04-14 03:45:00,38.6,37.0,30.05,East,89,0.0,2.0,94,0.00,,,0.05,WUHU216DAVISVP2,2013-04-14 10:45:00,
2013-04-14 03:50:00,38.5,36.9,30.04,ENE,72,0.0,2.0,94,0.00,,,0.05,WUHU216DAVISVP2,2013-04-14 10:50:00,
2013-04-14 03:55:00,38.4,36.8,30.05,ESE,117,0.0,2.0,94,0.00,,,0.05,WUHU216DAVISVP2,2013-04-14 10:55:00,
2013-04-14 04:00:00,38.4,36.8,30.05,SE,142,1.0,2.0,94,0.00,,,0.05,WUHU216DAVISVP2,2013-04-14 11:00:00,
2013-04-14 04:05:00,38.4,36.8,30.05,East,91,0.0,2.0,94,0.00,,,0.05,WUHU216DAVISVP2,2013-04-14 11:05:00,
2013-04-14 04:10:00,38.3,36.7,30.05,East,89,0.0,1.0,94,0.00,,,0.05,WUHU216DAVISVP2,2013-04-14 11:10:00,
2013-04-14 04:15:00,38.3,36.7,30.05,ENE,68,0.0,2.0,94,0.00,,,0.05,WUHU216DAVISVP2,2013-04-14 11:15:00,
2013-04-14 04:20:00,38.4,36.8,30.05,ENE,68,0.0,2.0,94,0.00,,,0.05,WUHU216DAVISVP2,2013-04-14 11:20:00,
2013-04-14 04:25:00,38.4,36.8,30.05,East,79,0.0,1.0,94,0.00,,,0.05,WUHU216DAVISVP2,2013-04-14 11:25:00,
2013-04-14 04:30:00,38.5,37.1,30.04,East,87,0.0,2.0,95,0.00,,,0.05,WUHU216DAVISVP2,2013-04-14 11:30:00,
2013-04-14 04:35:00,38.5,37.1,30.04,East,87,0.0,2.0,95,0.00,,,0.05,WUHU216DAVISVP2,2013-04-14 11:35:00,
2013-04-14 04:40:00,38.6,37.2,30.04,East,88,0.0,1.0,95,0.00,,,0.05,WUHU216DAVISVP2,2013-04-14 11:40:00,
2013-04-14 04:45:00,38.6,37.3,30.05,East,87,0.0,1.0,95,0.00,,,0.05,WUHU216DAVISVP2,2013-04-14 11:45:00,
2013-04-14 04:50:00,38.6,37.2,30.05,East,90,1.0,1.0,95,0.00,,,0.05,WUHU216DAVISVP2,2013-04-14 11:50:00,
2013-04-14 04:55:00,38.7,37.3,30.04,East,91,0.0,1.0,95,0.00,,,0.05,WUHU216DAVISVP2,2013-04-14 11:55:00,
2013-04-14 05:00:00,38.7,37.3,30.04,ENE,60,1.0,2.0,95,0.00,,,0.05,WUHU216DAVISVP2,2013-04-14 12:00:00,
2013-04-14 05:05:00,38.7,37.3,30.04,ESE,110,0.0,2.0,95,0.00,,,0.05,WUHU216DAVISVP2,2013-04-14 12:05:00,
2013-04-14 05:10:00,38.7,37.3,30.04,SE,141,0.0,2.0,95,0.00,,,0.05,WUHU216DAVISVP2,2013-04-14 12:10:00,
2013-04-14 05:15:00,38.8,37.4,30.04,East,88,0.0,1.0,95,0.00,,,0.05,WUHU216DAVISVP2,2013-04-14 12:15:00,
2013-04-14 05:20:00,38.8,37.4,30.04,ENE,77,0.0,1.0,95,0.00,,,0.05,WUHU216DAVISVP2,2013-04-14 12:20:00,
2013-04-14 05:25:00,38.8,37.5,30.04,ENE,69,0.0,1.0,95,0.00,,,0.05,WUHU216DAVISVP2,2013-04-14 12:25:00,
2013-04-14 05:30:00,38.7,37.3,30.05,East,84,1.0,2.0,95,0.00,,,0.05,WUHU216DAVISVP2,2013-04-14 12:30:00,
2013-04-14 05:35:00,38.7,37.3,30.04,ENE,76,0.0,2.0,95,0.00,,,0.05,WUHU216DAVISVP2,2013-04-14 12:35:00,
2013-04-14 05:40:00,38.8,37.5,30.04,ENE,76,0.0,1.0,95,0.00,,,0.05,WUHU216DAVISVP2,2013-04-14 12:40:00,
2013-04-14 05:45:00,38.8,37.4,30.04,ENE,75,0.0,2.0,95,0.00,,,0.05,WUHU216DAVISVP2,2013-04-14 12:45:00,
2013-04-14 05:50:00,38.9,37.5,30.04,East,94,0.0,2.0,95,0.00,,,0.05,WUHU216DAVISVP2,2013-04-14 12:50:00,
2013-04-14 05:55:00,39.0,37.6,30.04,ESE,118,0.0,1.0,95,0.00,,,0.05,WUHU216DAVISVP2,2013-04-14 12:55:00,
2013-04-14 06:00:00,39.1,38.1,30.05,ENE,68,0.0,1.0,96,0.00,,,0.05,WUHU216DAVISVP2,2013-04-14 13:00:00,
2013-04-14 06:05:00,39.1,37.7,30.05,ENE,68,0.0,1.0,95,0.00,,,0.05,WUHU216DAVISVP2,2013-04-14 13:05:00,
2013-04-14 06:10:00,39.2,37.8,30.05,ENE,68,0.0,1.0,95,0.00,,,0.05,WUHU216DAVISVP2,2013-04-14 13:10:00,
2013-04-14 06:15:00,39.3,37.9,30.04,ENE,68,0.0,1.0,95,0.00,,,0.05,WUHU216DAVISVP2,2013-04-14 13:15:00,
2013-04-14 06:20:00,39.3,37.9,30.05,ENE,68,0.0,0.0,95,0.00,,,0.05,WUHU216DAVISVP2,2013-04-14 13:20:00,
2013-04-14 06:25:00,39.3,38.2,30.05,ENE,68,0.0,0.0,96,0.00,,,0.05,WUHU216DAVISVP2,2013-04-14 13:25:00,
2013-04-14 06:30:00,39.3,37.9,30.05,ENE,68,0.0,0.0,95,0.00,,,0.05,WUHU216DAVISVP2,2013-04-14 13:30:00,
2013-04-14 06:35:00,39.3,38.0,30.05,East,79,0.0,1.0,95,0.00,,,0.05,WUHU216DAVISVP2,2013-04-14 13:35:00,
2013-04-14 06:40:00,39.3,38.2,30.05,East,79,0.0,1.0,96,0.00,,,0.05,WUHU216DAVISVP2,2013-04-14 13:40:00,
2013-04-14 06:45:00,39.4,38.3,30.05,East,79,0.0,1.0,96,0.00,,,0.05,WUHU216DAVISVP2,2013-04-14 13:45:00,
2013-04-14 06:50:00,39.5,38.4,30.05,East,81,0.0,1.0,96,0.00,,,0.05,WUHU216DAVISVP2,2013-04-14 13:50:00,
2013-04-14 06:55:00,39.5,38.4,30.05,ESE,104,1.0,1.0,96,0.00,,,0.05,WUHU216DAVISVP2,2013-04-14 13:55:00,
2013-04-14 07:00:00,39.5,38.5,30.05,ESE,104,0.0,1.0,96,0.00,,,0.05,WUHU216DAVISVP2,2013-04-14 14:00:00,
2013-04-14 07:05:00,39.7,38.6,30.05,SSE,162,0.0,1.0,96,0.00,,,0.05,WUHU216DAVISVP2,2013-04-14 14:05:00,
2013-04-14 07:10:00,39.7,38.6,30.04,South,177,0.0,1.0,96,0.00,,,0.05,WUHU216DAVISVP2,2013-04-14 14:10:00,
2013-04-14 07:15:00,39.8,38.7,30.04,SE,134,0.0,1.0,96,0.00,,,0.05,WUHU216DAVISVP2,2013-04-14 14:15:00,
2013-04-14 07:20:00,39.9,38.9,30.04,ESE,120,0.0,1.0,96,0.00,,,0.05,WUHU216DAVISVP2,2013-04-14 14:20:00,
2013-04-14 07:25:00,39.9,38.8,30.04,East,97,1.0,1.0,96,0.00,,,0.05,WUHU216DAVISVP2,2013-04-14 14:25:00,
2013-04-14 07:30:00,39.9,38.8,30.04,East,80,0.0,1.0,96,0.00,,,0.05,WUHU216DAVISVP2,2013-04-14 14:30:00,
2013-04-14 07:35:00,40.0,38.9,30.04,East,98,1.0,1.0,96,0.00,,,0.05,WUHU216DAVISVP2,2013-04-14 14:35:00,
2013-04-14 07:40:00,40.1,39.0,30.04,SW,224,0.0,1.0,96,0.00,,,0.05,WUHU216DAVISVP2,2013-04-14 14:40:00,
2013-04-14 07:45:00,40.5,39.4,30.04,SW,231,1.0,2.0,96,0.00,,,0.05,WUHU216DAVISVP2,2013-04-14 14:45:00,
2013-04-14 07:50:00,40.7,39.6,30.04,SW,224,0.0,2.0,96,0.00,,,0.05,WUHU216DAVISVP2,2013-04-14 14:50:00,
2013-04-14 07:55:00,40.8,39.4,30.04,SSW,195,3.0,3.0,95,0.00,,,0.05,WUHU216DAVISVP2,2013-04-14 14:55:00,
2013-04-14 08:00:00,40.9,39.5,30.04,WSW,246,3.0,4.0,95,0.00,,,0.05,WUHU216DAVISVP2,2013-04-14 15:00:00,
2013-04-14 08:05:00,40.9,39.3,30.04,SSW,210,0.0,4.0,94,0.00,,,0.05,WUHU216DAVISVP2,2013-04-14 15:05:00,
2013-04-14 08:10:00,40.9,39.3,30.04,SW,232,4.0,4.0,94,0.00,,,0.05,WUHU216DAVISVP2,2013-04-14 15:10:00,
2013-04-14 08:15:00,40.8,38.9,30.04,SW,232,7.0,8.0,93,0.00,,,0.05,WUHU216DAVISVP2,2013-04-14 15:15:00,
2013-04-14 08:20:00,40.7,38.8,30.04,WSW,245,3.0,8.0,93,0.00,,,0.05,WUHU216DAVISVP2,2013-04-14 15:20:00,
2013-04-14 08:25:00,40.8,38.9,30.04,SSW,208,3.0,7.0,93,0.00,,,0.05,WUHU216DAVISVP2,2013-04-14 15:25:00,
2013-04-14 08:30:00,40.8,38.9,30.04,SW,236,3.0,8.0,93,0.00,,,0.05,WUHU216DAVISVP2,2013-04-14 15:30:00,
2013-04-14 08:35:00,41.0,39.1,30.04,WSW,255,5.0,8.0,93,0.00,,,0.05,WUHU216DAVISVP2,2013-04-14 15:35:00,
2013-04-14 08:40:00,41.1,39.2,30.04,WSW,254,2.0,7.0,93,0.00,,,0.05,WUHU216DAVISVP2,2013-04-14 15:40:00,
2013-04-14 08:45:00,41.1,39.2,30.04,SW,236,3.0,7.0,93,0.00,,,0.05,WUHU216DAVISVP2,2013-04-14 15:45:00,
2013-04-14 08:50:00,41.3,39.1,30.04,WSW,243,2.0,6.0,92,0.00,,,0.05,WUHU216DAVISVP2,2013-04-14 15:50:00,
2013-04-14 08:55:00,41.7,39.5,30.04,WSW,238,0.0,6.0,92,0.00,,,0.05,WUHU216DAVISVP2,2013-04-14 15:55:00,
2013-04-14 09:00:00,41.8,39.4,30.04,SW,228,0.0,5.0,91,0.00,,,0.05,WUHU216DAVISVP2,2013-04-14 16:00:00,
2013-04-14 09:05:00,42.0,39.2,30.04,SSW,212,2.0,5.0,90,0.00,,,0.05,WUHU216DAVISVP2,2013-04-14 16:05:00,
2013-04-14 09:10:00,41.7,38.7,30.04,SW,225,1.0,5.0,89,0.00,,,0.05,WUHU216DAVISVP2,2013-04-14 16:10:00,
2013-04-14 09:15:00,41.6,38.8,30.04,SW,222,1.0,6.0,90,0.00,,,0.05,WUHU216DAVISVP2,2013-04-14 16:15:00,
2013-04-14 09:20:00,41.5,38.7,30.04,WSW,240,1.0,6.0,90,0.00,,,0.05,WUHU216DAVISVP2,2013-04-14 16:20:00,
2013-04-14 09:25:00,41.5,38.7,30.04,WSW,243,4.0,5.0,90,0.00,,,0.05,WUHU216DAVISVP2,2013-04-14 16:25:00,
2013-04-14 09:30:00,41.7,38.9,30.04,SW,218,3.0,5.0,90,0.00,,,0.05,WUHU216DAVISVP2,2013-04-14 16:30:00,
2013-04-14 09:35:00,41.7,38.9,30.04,WSW,239,0.0,5.0,90,0.00,,,0.05,WUHU216DAVISVP2,2013-04-14 16:35:00,
2013-04-14 09:40:00,41.7,38.9,30.04,SW,224,4.0,6.0,90,0.00,,,0.05,WUHU216DAVISVP2,2013-04-14 16:40:00,
2013-04-14 09:45:00,41.9,39.1,30.04,WSW,238,3.0,6.0,90,0.00,,,0.05,WUHU216DAVISVP2,2013-04-14 16:45:00,
2013-04-14 09:50:00,42.0,39.2,30.04,WSW,243,4.0,8.0,90,0.00,,,0.05,WUHU216DAVISVP2,2013-04-14 16:50:00,
2013-04-14 09:55:00,41.8,39.0,30.04,SW,235,4.0,8.0,90,0.00,,,0.05,WUHU216DAVISVP2,2013-04-14 16:55:00,
2013-04-14 10:00:00,42.1,39.6,30.04,WSW,250,0.0,7.0,91,0.00,,,0.05,WUHU216DAVISVP2,2013-04-14 17:00:00,
2013-04-14 10:05:00,42.3,39.3,30.04,West,271,1.0,7.0,89,0.00,,,0.05,WUHU216DAVISVP2,2013-04-14 17:05:00,
2013-04-14 10:10:00,42.4,39.4,30.04,WSW,248,2.0,7.0,89,0.00,,,0.05,WUHU216DAVISVP2,2013-04-14 17:10:00,
2013-04-14 10:15:00,42.7,39.6,30.04,WSW,238,3.0,7.0,89,0.00,,,0.05,WUHU216DAVISVP2,2013-04-14 17:15:00,
2013-04-14 10:20:00,43.4,39.8,30.04,WSW,253,4.0,7.0,87,0.00,,,0.05,WUHU216DAVISVP2,2013-04-14 17:20:00,
2013-04-14 10:25:00,43.8,40.2,30.04,SW,225,5.0,7.0,87,0.00,,,0.05,WUHU216DAVISVP2,2013-04-14 17:25:00,
2013-04-14 10:30:00,44.3,39.8,30.04,SW,226,1.0,9.0,84,0.00,,,0.05,WUHU216DAVISVP2,2013-04-14 17:30:00,
2013-04-14 10:35:00,44.1,39.3,30.04,WSW,245,4.0,9.0,83,0.00,,,0.05,WUHU216DAVISVP2,2013-04-14 17:35:00,
2013-04-14 10:40:00,44.2,39.4,30.04,WSW,242,5.0,8.0,83,0.00,,,0.05,WUHU216DAVISVP2,2013-04-14 17:40:00,
2013-04-14 10:45:00,44.3,39.2,30.04,WSW,250,5.0,6.0,82,0.00,,,0.05,WUHU216DAVISVP2,2013-04-14 17:45:00,
2013-04-14 10:50:00,44.5,39.7,30.04,WSW,248,1.0,6.0,83,0.00,,,0.05,WUHU216DAVISVP2,2013-04-14 17:50:00,
2013-04-14 10:55:00,45.6,40.1,30.04,WSW,238,2.0,5.0,81,0.00,,,0.05,WUHU216DAVISVP2,2013-04-14 17:55:00,
2013-04-14 11:00:00,46.2,41.0,30.04,SSW,203,2.0,5.0,82,0.00,,,0.05,WUHU216DAVISVP2,2013-04-14 18:00:00,
2013-04-14 11:05:00,47.8,42.9,30.03,WSW,239,7.0,8.0,83,0.00,,,0.05,WUHU216DAVISVP2,2013-04-14 18:05:00,
2013-04-14 11:10:00,47.4,40.9,30.03,SSE,158,3.0,9.0,78,0.00,,,0.05,WUHU216DAVISVP2,2013-04-14 18:10:00,
2013-04-14 11:15:00,46.9,40.4,30.03,SSW,212,0.0,9.0,78,0.00,,,0.05,WUHU216DAVISVP2,2013-04-14 18:15:00,
2013-04-14 11:20:00,46.7,40.2,30.03,SW,216,2.0,8.0,78,0.00,,,0.05,WUHU216DAVISVP2,2013-04-14 18:20:00,
2013-04-14 11:25:00,47.2,40.4,30.03,North,5,1.0,8.0,77,0.00,,,0.05,WUHU216DAVISVP2,2013-04-14 18:25:00,
2013-04-14 11:30:00,47.1,38.9,30.03,WSW,242,4.0,10.0,73,0.00,,,0.05,WUHU216DAVISVP2,2013-04-14 18:30:00,
2013-04-14 11:35:00,46.9,39.0,30.03,WSW,249,0.0,10.0,74,0.00,,,0.05,WUHU216DAVISVP2,2013-04-14 18:35:00,
2013-04-14 11:40:00,47.4,40.3,30.03,WSW,238,4.0,9.0,76,0.00,,,0.05,WUHU216DAVISVP2,2013-04-14 18:40:00,
2013-04-14 11:45:00,48.1,39.9,30.03,WSW,239,2.0,9.0,73,0.00,,,0.05,WUHU216DAVISVP2,2013-04-14 18:45:00,
2013-04-14 11:50:00,48.8,39.5,30.02,SW,226,1.0,6.0,70,0.00,,,0.05,WUHU216DAVISVP2,2013-04-14 18:50:00,
2013-04-14 11:55:00,49.9,40.2,30.02,SSW,204,3.0,6.0,69,0.00,,,0.05,WUHU216DAVISVP2,2013-04-14 18:55:00,
2013-04-14 12:00:00,50.0,40.7,30.02,South,190,2.0,7.0,70,0.00,,,0.05,WUHU216DAVISVP2,2013-04-14 19:00:00,
2013-04-14 12:05:00,49.7,38.9,30.02,SSW,207,4.0,8.0,66,0.00,,,0.05,WUHU216DAVISVP2,2013-04-14 19:05:00,
2013-04-14 12:10:00,48.7,39.5,30.02,West,264,1.0,11.0,70,0.00,,,0.05,WUHU216DAVISVP2,2013-04-14 19:10:00,
2013-04-14 12:15:00,48.2,39.3,30.02,SSW,198,4.0,11.0,71,0.00,,,0.05,WUHU216DAVISVP2,2013-04-14 19:15:00,
2013-04-14 12:20:00,47.9,38.3,30.02,SW,236,6.0,10.0,69,0.00,,,0.05,WUHU216DAVISVP2,2013-04-14 19:20:00,
2013-04-14 12:25:00,48.1,38.5,30.02,SSW,195,4.0,10.0,69,0.00,,,0.05,WUHU216DAVISVP2,2013-04-14 19:25:00,
2013-04-14 12:30:00,48.6,38.1,30.02,SSW,210,5.0,8.0,67,0.00,,,0.05,WUHU216DAVISVP2,2013-04-14 19:30:00,
2013-04-14 12:35:00,49.2,38.0,30.01,SE,135,0.0,9.0,65,0.00,,,0.05,WUHU216DAVISVP2,2013-04-14 19:35:00,
2013-04-14 12:40:00,50.3,37.5,30.01,WSW,248,6.0,9.0,61,0.00,,,0.05,WUHU216DAVISVP2,2013-04-14 19:40:00,
2013-04-14 12:45:00,50.5,37.6,30.01,SW,231,3.0,8.0,61,0.00,,,0.05,WUHU216DAVISVP2,2013-04-14 19:45:00,
2013-04-14 12:50:00,50.4,38.0,30.01,SW,224,4.0,8.0,62,0.00,,,0.05,WUHU216DAVISVP2,2013-04-14 19:50:00,
2013-04-14 12:55:00,51.1,37.8,30.01,South,187,5.0,8.0,60,0.00,,,0.05,WUHU216DAVISVP2,2013-04-14 19:55:00,
2013-04-14 13:00:00,52.1,39.1,30.01,NNW,346,0.0,8.0,61,0.00,,,0.05,WUHU216DAVISVP2,2013-04-14 20:00:00,
2013-04-14 13:05:00,52.9,38.2,30.01,North,3,1.0,8.0,57,0.00,,,0.05,WUHU216DAVISVP2,2013-04-14 20:05:00,
2013-04-14 13:10:00,53.2,38.9,30.00,WNW,293,0.0,8.0,58,0.00,,,0.05,WUHU216DAVISVP2,2013-04-14 20:10:00,
2013-04-14 13:15:00,52.6,36.9,30.00,WSW,238,1.0,7.0,55,0.00,,,0.05,WUHU216DAVISVP2,2013-04-14 20:15:00,
2013-04-14 13:20:00,51.8,37.1,30.00,ENE,68,1.0,4.0,57,0.00,,,0.05,WUHU216DAVISVP2,2013-04-14 20:20:00,
2013-04-14 13:25:00,50.8,36.6,30.00,ENE,69,1.0,4.0,58,0.00,,,0.05,WUHU216DAVISVP2,2013-04-14 20:25:00,
2013-04-14 13:30:00,50.2,38.2,30.00,North,354,1.0,4.0,63,0.00,,,0.05,WUHU216DAVISVP2,2013-04-14 20:30:00,
2013-04-14 13:35:00,50.1,38.1,30.00,North,354,2.0,4.0,63,0.00,,,0.05,WUHU216DAVISVP2,2013-04-14 20:35:00,
2013-04-14 13:40:00,49.7,37.2,30.00,NNE,13,1.0,5.0,62,0.00,,,0.05,WUHU216DAVISVP2,2013-04-14 20:40:00,
2013-04-14 13:45:00,49.4,36.9,30.00,SW,224,0.0,5.0,62,0.00,,,0.05,WUHU216DAVISVP2,2013-04-14 20:45:00,
2013-04-14 13:50:00,49.3,36.8,30.00,NE,41,0.0,4.0,62,0.00,,,0.05,WUHU216DAVISVP2,2013-04-14 20:50:00,
2013-04-14 13:55:00,48.8,36.5,30.00,NNW,345,2.0,4.0,62,0.00,,,0.05,WUHU216DAVISVP2,2013-04-14 20:55:00,
2013-04-14 14:00:00,48.7,37.1,30.00,North,5,0.0,4.0,64,0.00,,,0.05,WUHU216DAVISVP2,2013-04-14 21:00:00,
2013-04-14 14:05:00,49.7,36.9,30.00,NE,34,0.0,3.0,61,0.00,,,0.05,WUHU216DAVISVP2,2013-04-14 21:05:00,
2013-04-14 14:10:00,51.4,37.6,30.00,ENE,72,0.0,2.0,59,0.00,,,0.05,WUHU216DAVISVP2,2013-04-14 21:10:00,
2013-04-14 14:15:00,53.0,37.3,30.00,WSW,257,1.0,2.0,55,0.00,,,0.05,WUHU216DAVISVP2,2013-04-14 21:15:00,
2013-04-14 14:20:00,53.6,37.9,30.00,NNE,30,2.0,3.0,55,0.00,,,0.05,WUHU216DAVISVP2,2013-04-14 21:20:00,
2013-04-14 14:25:00,52.9,39.1,30.00,North,8,5.0,9.0,59,0.00,,,0.05,WUHU216DAVISVP2,2013-04-14 21:25:00,
2013-04-14 14:30:00,51.6,39.0,30.00,North,359,4.0,9.0,62,0.00,,,0.05,WUHU216DAVISVP2,2013-04-14 21:30:00,
2013-04-14 14:35:00,50.5,39.2,29.99,NNE,23,3.0,9.0,65,0.00,,,0.05,WUHU216DAVISVP2,2013-04-14 21:35:00,
2013-04-14 14:40:00,49.9,38.6,29.99,North,353,7.0,10.0,65,0.00,,,0.05,WUHU216DAVISVP2,2013-04-14 21:40:00,
2013-04-14 14:45:00,49.9,39.5,29.99,North,349,4.0,10.0,67,0.00,,,0.05,WUHU216DAVISVP2,2013-04-14 21:45:00,
2013-04-14 14:50:00,49.9,37.5,29.99,NNW,333,2.0,8.0,62,0.00,,,0.05,WUHU216DAVISVP2,2013-04-14 21:50:00,
2013-04-14 14:55:00,50.2,38.2,29.99,North,354,0.0,8.0,63,0.00,,,0.05,WUHU216DAVISVP2,2013-04-14 21:55:00,
2013-04-14 15:00:00,50.8,35.3,29.99,North,349,0.0,6.0,55,0.00,,,0.05,WUHU216DAVISVP2,2013-04-14 22:00:00,
2013-04-14 15:05:00,51.5,34.5,29.99,NNW,338,1.0,6.0,52,0.00,,,0.05,WUHU216DAVISVP2,2013-04-14 22:05:00,
2013-04-14 15:10:00,51.9,34.3,29.98,NNE,26,4.0,6.0,51,0.00,,,0.05,WUHU216DAVISVP2,2013-04-14 22:10:00,
2013-04-14 15:15:00,52.3,34.7,29.98,NNE,13,0.0,8.0,51,0.00,,,0.05,WUHU216DAVISVP2,2013-04-14 22:15:00,
2013-04-14 15:20:00,52.3,34.7,29.98,NNE,22,4.0,8.0,51,0.00,,,0.05,WUHU216DAVISVP2,2013-04-14 22:20:00,
2013-04-14 15:25:00,52.5,35.9,29.98,NNE,27,3.0,7.0,53,0.00,,,0.05,WUHU216DAVISVP2,2013-04-14 22:25:00,
2013-04-14 15:30:00,52.8,38.5,29.98,NW,317,2.0,7.0,58,0.00,,,0.05,WUHU216DAVISVP2,2013-04-14 22:30:00,
2013-04-14 15:35:00,52.6,38.8,29.98,North,353,3.0,7.0,59,0.00,,,0.05,WUHU216DAVISVP2,2013-04-14 22:35:00,
2013-04-14 15:40:00,51.3,38.0,29.98,North,8,1.0,8.0,60,0.00,,,0.05,WUHU216DAVISVP2,2013-04-14 22:40:00,
2013-04-14 15:45:00,51.7,37.0,29.98,NNW,345,1.0,8.0,57,0.00,,,0.05,WUHU216DAVISVP2,2013-04-14 22:45:00,
2013-04-14 15:50:00,52.1,36.4,29.97,NNE,16,3.0,7.0,55,0.00,,,0.05,WUHU216DAVISVP2,2013-04-14 22:50:00,
2013-04-14 15:55:00,52.3,37.1,29.97,NE,37,1.0,7.0,56,0.00,,,0.05,WUHU216DAVISVP2,2013-04-14 22:55:00,
2013-04-14 16:00:00,52.6,37.4,29.97,NNW,344,2.0,5.0,56,0.00,,,0.05,WUHU216DAVISVP2,2013-04-14 23:00:00,
2013-04-14 16:05:00,52.4,37.2,29.97,NE,41,2.0,8.0,56,0.00,,,0.05,WUHU216DAVISVP2,2013-04-14 23:05:00,
2013-04-14 16:10:00,52.6,36.5,29.97,SSE,167,1.0,8.0,54,0.00,,,0.05,WUHU216DAVISVP2,2013-04-14 23:10:00,
2013-04-14 16:15:00,52.7,36.5,29.97,NE,46,2.0,7.0,54,0.00,,,0.05,WUHU216DAVISVP2,2013-04-14 23:15:00,
2013-04-14 16:20:00,52.6,35.5,29.97,NNE,20,3.0,6.0,52,0.00,,,0.05,WUHU216DAVISVP2,2013-04-14 23:20:00,
2013-04-14 16:25:00,52.4,34.8,29.97,WSW,252,3.0,6.0,51,0.00,,,0.05,WUHU216DAVISVP2,2013-04-14 23:25:00,
2013-04-14 16:30:00,52.2,33.6,29.97,North,6,2.0,6.0,49,0.00,,,0.05,WUHU216DAVISVP2,2013-04-14 23:30:00,
2013-04-14 16:35:00,51.7,33.6,29.97,WSW,255,0.0,9.0,50,0.00,,,0.05,WUHU216DAVISVP2,2013-04-14 23:35:00,
2013-04-14 16:40:00,52.1,32.9,29.97,North,359,3.0,9.0,48,0.00,,,0.05,WUHU216DAVISVP2,2013-04-14 23:40:00,
2013-04-14 16:45:00,51.8,32.7,29.97,NNE,29,1.0,8.0,48,0.00,,,0.05,WUHU216DAVISVP2,2013-04-14 23:45:00,
2013-04-14 16:50:00,51.8,32.7,29.96,NNW,347,0.0,8.0,48,0.00,,,0.05,WUHU216DAVISVP2,2013-04-14 23:50:00,
2013-04-14 16:55:00,52.1,33.0,29.97,NE,37,0.0,8.0,48,0.00,,,0.05,WUHU216DAVISVP2,2013-04-14 23:55:00,
2013-04-14 17:00:00,52.1,31.9,29.97,NE,39,0.0,8.0,46,0.00,,,0.05,WUHU216DAVISVP2,2013-04-15 00:00:00,
2013-04-14 17:05:00,52.2,32.5,29.96,West,276,0.0,7.0,47,0.00,,,0.05,WUHU216DAVISVP2,2013-04-15 00:05:00,
2013-04-14 17:10:00,52.0,32.3,29.97,North,6,2.0,6.0,47,0.00,,,0.05,WUHU216DAVISVP2,2013-04-15 00:10:00,
2013-04-14 17:16:00,51.9,31.7,29.97,North,6,2.0,6.0,46,0.00,,,0.05,WUHU216DAVISVP2,2013-04-15 00:16:00,
2013-04-14 17:21:00,51.9,33.3,29.97,NNW,343,2.0,5.0,49,0.00,,,0.05,WUHU216DAVISVP2,2013-04-15 00:21:00,
2013-04-14 17:26:00,51.8,32.1,29.97,NNE,30,1.0,5.0,47,0.00,,,0.05,WUHU216DAVISVP2,2013-04-15 00:26:00,
2013-04-14 17:31:00,51.7,31.5,29.97,NE,37,0.0,5.0,46,0.00,,,0.05,WUHU216DAVISVP2,2013-04-15 00:31:00,
2013-04-14 17:36:00,51.6,29.7,29.96,NE,41,0.0,6.0,43,0.00,,,0.05,WUHU216DAVISVP2,2013-04-15 00:36:00,
2013-04-14 17:41:00,51.6,30.9,29.96,ESE,105,0.0,6.0,45,0.00,,,0.05,WUHU216DAVISVP2,2013-04-15 00:41:00,
2013-04-14 17:46:00,51.3,30.6,29.96,NE,46,0.0,6.0,45,0.00,,,0.05,WUHU216DAVISVP2,2013-04-15 00:46:00,
2013-04-14 17:51:00,51.2,33.2,29.96,NE,41,2.0,6.0,50,0.00,,,0.05,WUHU216DAVISVP2,2013-04-15 00:51:00,
2013-04-14 17:56:00,51.0,34.0,29.96,WNW,288,1.0,5.0,52,0.00,,,0.05,WUHU216DAVISVP2,2013-04-15 00:56:00,
2013-04-14 18:01:00,50.9,33.9,29.96,North,6,2.0,7.0,52,0.00,,,0.05,WUHU216DAVISVP2,2013-04-15 01:01:00,
2013-04-14 18:06:00,50.8,33.8,29.96,North,356,0.0,7.0,52,0.00,,,0.05,WUHU216DAVISVP2,2013-04-15 01:06:00,
2013-04-14 18:11:00,50.6,33.6,29.96,North,356,0.0,6.0,52,0.00,,,0.05,WUHU216DAVISVP2,2013-04-15 01:11:00,
2013-04-14 18:17:00,50.4,33.9,29.96,NE,55,0.0,4.0,53,0.00,,,0.05,WUHU216DAVISVP2,2013-04-15 01:17:00,
2013-04-14 18:22:00,50.2,33.2,29.96,North,11,2.0,7.0,52,0.00,,,0.05,WUHU216DAVISVP2,2013-04-15 01:22:00,
2013-04-14 18:27:00,50.1,33.1,29.96,NNE,13,0.0,7.0,52,0.00,,,0.05,WUHU216DAVISVP2,2013-04-15 01:27:00,
2013-04-14 18:32:00,50.2,33.2,29.96,West,267,2.0,6.0,52,0.00,,,0.05,WUHU216DAVISVP2,2013-04-15 01:32:00,
2013-04-14 18:37:00,50.2,33.2,29.96,North,3,0.0,5.0,52,0.00,,,0.05,WUHU216DAVISVP2,2013-04-15 01:37:00,
2013-04-14 18:42:00,50.0,32.1,29.96,NNE,25,0.0,8.0,50,0.00,,,0.05,WUHU216DAVISVP2,2013-04-15 01:42:00,
2013-04-14 18:47:00,49.6,31.2,29.96,NNE,21,0.0,9.0,49,0.00,,,0.05,WUHU216DAVISVP2,2013-04-15 01:47:00,
2013-04-14 18:52:00,49.4,32.0,29.96,NNE,28,0.0,9.0,51,0.00,,,0.05,WUHU216DAVISVP2,2013-04-15 01:52:00,
2013-04-14 18:57:00,49.4,32.0,29.96,NNE,32,0.0,8.0,51,0.00,,,0.05,WUHU216DAVISVP2,2013-04-15 01:57:00,
2013-04-14 19:02:00,49.3,32.4,29.96,WSW,238,0.0,8.0,52,0.00,,,0.05,WUHU216DAVISVP2,2013-04-15 02:02:00,
2013-04-14 19:07:00,49.1,32.2,29.96,NNE,23,0.0,6.0,52,0.00,,,0.05,WUHU216DAVISVP2,2013-04-15 02:07:00,
2013-04-14 19:12:00,49.0,32.1,29.96,North,353,0.0,6.0,52,0.00,,,0.05,WUHU216DAVISVP2,2013-04-15 02:12:00,
2013-04-14 19:17:00,48.9,32.0,29.96,East,83,0.0,6.0,52,0.00,,,0.05,WUHU216DAVISVP2,2013-04-15 02:17:00,
2013-04-14 19:22:00,48.7,31.9,29.96,NNE,27,0.0,6.0,52,0.00,,,0.05,WUHU216DAVISVP2,2013-04-15 02:22:00,
2013-04-14 19:27:00,48.3,31.9,29.96,NNE,23,1.0,3.0,53,0.00,,,0.05,WUHU216DAVISVP2,2013-04-15 02:27:00,
2013-04-14 19:32:00,47.9,32.1,29.96,North,353,1.0,3.0,54,0.00,,,0.05,WUHU216DAVISVP2,2013-04-15 02:32:00,
2013-04-14 19:37:00,47.6,32.7,29.97,NNE,26,2.0,4.0,56,0.00,,,0.05,WUHU216DAVISVP2,2013-04-15 02:37:00,
2013-04-14 19:42:00,47.3,33.8,29.97,NNE,13,0.0,4.0,59,0.00,,,0.05,WUHU216DAVISVP2,2013-04-15 02:42:00,
2013-04-14 19:47:00,47.0,34.7,29.97,North,352,2.0,3.0,62,0.00,,,0.05,WUHU216DAVISVP2,2013-04-15 02:47:00,
2013-04-14 19:52:00,46.7,35.3,29.97,North,356,1.0,3.0,64,0.00,,,0.05,WUHU216DAVISVP2,2013-04-15 02:52:00,
2013-04-14 19:57:00,46.5,35.5,29.97,NNE,20,0.0,2.0,65,0.00,,,0.05,WUHU216DAVISVP2,2013-04-15 02:57:00,
2013-04-14 20:02:00,46.3,35.3,29.97,North,353,0.0,4.0,65,0.00,,,0.05,WUHU216DAVISVP2,2013-04-15 03:02:00,
2013-04-14 20:07:00,46.1,35.4,29.97,NNE,32,0.0,4.0,66,0.00,,,0.05,WUHU216DAVISVP2,2013-04-15 03:07:00,
2013-04-14 20:12:00,46.0,35.4,29.97,North,360,0.0,4.0,66,0.00,,,0.05,WUHU216DAVISVP2,2013-04-15 03:12:00,
2013-04-14 20:17:00,45.9,35.3,29.97,North,3,0.0,4.0,66,0.00,,,0.05,WUHU216DAVISVP2,2013-04-15 03:17:00,
2013-04-14 20:22:00,45.7,35.5,29.97,North,3,0.0,3.0,67,0.00,,,0.05,WUHU216DAVISVP2,2013-04-15 03:22:00,
2013-04-14 20:27:00,45.5,36.3,29.97,NE,39,0.0,2.0,70,0.00,,,0.05,WUHU216DAVISVP2,2013-04-15 03:27:00,
2013-04-14 20:32:00,45.3,37.6,29.98,WSW,238,0.0,2.0,74,0.00,,,0.05,WUHU216DAVISVP2,2013-04-15 03:32:00,
2013-04-14 20:37:00,45.1,38.0,29.98,WSW,240,0.0,2.0,76,0.00,,,0.05,WUHU216DAVISVP2,2013-04-15 03:37:00,
2013-04-14 20:42:00,44.9,38.2,29.98,WSW,248,2.0,2.0,77,0.00,,,0.05,WUHU216DAVISVP2,2013-04-15 03:42:00,
2013-04-14 20:47:00,44.7,38.3,29.98,WSW,258,1.0,3.0,78,0.00,,,0.05,WUHU216DAVISVP2,2013-04-15 03:47:00,
2013-04-14 20:52:00,44.6,38.5,29.98,WSW,242,0.0,3.0,79,0.00,,,0.05,WUHU216DAVISVP2,2013-04-15 03:52:00,
2013-04-14 20:57:00,44.3,38.2,29.98,WSW,242,0.0,2.0,79,0.00,,,0.05,WUHU216DAVISVP2,2013-04-15 03:57:00,
2013-04-14 21:00:00,44.0,37.9,29.98,WSW,241,0.0,2.0,79,0.00,,,0.05,WUHU216DAVISVP2,2013-04-15 04:00:00,
2013-04-14 21:01:00,43.9,37.8,29.98,WSW,242,0.0,2.0,79,0.00,,,0.05,WUHU216DAVISVP2,2013-04-15 04:01:00,
2013-04-14 21:06:00,43.5,38.1,29.98,WSW,242,0.0,2.0,81,0.00,,,0.05,WUHU216DAVISVP2,2013-04-15 04:06:00,
2013-04-14 21:11:00,43.2,38.1,29.98,WSW,246,0.0,1.0,82,0.00,,,0.05,WUHU216DAVISVP2,2013-04-15 04:11:00,
2013-04-14 21:16:00,43.2,38.1,29.98,SW,233,1.0,2.0,82,0.00,,,0.05,WUHU216DAVISVP2,2013-04-15 04:16:00,
2013-04-14 21:21:00,43.5,38.4,29.99,WSW,240,2.0,4.0,82,0.00,,,0.05,WUHU216DAVISVP2,2013-04-15 04:21:00,
2013-04-14 21:26:00,43.6,38.8,29.99,SW,214,2.0,5.0,83,0.00,,,0.05,WUHU216DAVISVP2,2013-04-15 04:26:00,
2013-04-14 21:31:00,43.5,38.7,29.99,SW,216,0.0,5.0,83,0.00,,,0.05,WUHU216DAVISVP2,2013-04-15 04:31:00,
2013-04-14 21:36:00,43.5,38.7,29.99,SSW,201,2.0,5.0,83,0.00,,,0.05,WUHU216DAVISVP2,2013-04-15 04:36:00,
2013-04-14 21:41:00,43.5,38.7,29.99,WSW,238,2.0,5.0,83,0.00,,,0.05,WUHU216DAVISVP2,2013-04-15 04:41:00,
2013-04-14 21:45:00,43.4,38.6,29.99,SW,222,1.0,5.0,83,0.00,,,0.05,WUHU216DAVISVP2,2013-04-15 04:45:00,
2013-04-14 21:50:00,43.3,38.8,29.99,SW,221,0.0,5.0,84,0.00,,,0.05,WUHU216DAVISVP2,2013-04-15 04:50:00,
2013-04-14 21:55:00,43.1,38.6,29.99,SSW,203,2.0,5.0,84,0.00,,,0.05,WUHU216DAVISVP2,2013-04-15 04:55:00,
2013-04-14 22:00:00,43.1,38.6,29.99,SW,224,1.0,5.0,84,0.00,,,0.05,WUHU216DAVISVP2,2013-04-15 05:00:00,
2013-04-14 22:05:00,43.0,38.5,29.99,South,169,1.0,5.0,84,0.00,,,0.05,WUHU216DAVISVP2,2013-04-15 05:05:00,
2013-04-14 22:10:00,42.9,38.1,29.99,SSW,210,1.0,4.0,83,0.00,,,0.05,WUHU216DAVISVP2,2013-04-15 05:10:00,
2013-04-14 22:15:00,42.9,38.1,29.99,SW,221,4.0,4.0,83,0.00,,,0.05,WUHU216DAVISVP2,2013-04-15 05:15:00,
2013-04-14 22:20:00,42.9,38.1,29.99,WSW,242,3.0,4.0,83,0.00,,,0.05,WUHU216DAVISVP2,2013-04-15 05:20:00,
2013-04-14 22:25:00,42.8,38.0,29.99,South,174,1.0,4.0,83,0.00,,,0.05,WUHU216DAVISVP2,2013-04-15 05:25:00,
2013-04-14 22:30:00,42.8,38.3,29.99,SSW,203,0.0,4.0,84,0.00,,,0.05,WUHU216DAVISVP2,2013-04-15 05:30:00,
2013-04-14 22:35:00,42.7,38.2,29.99,SW,217,2.0,4.0,84,0.00,,,0.05,WUHU216DAVISVP2,2013-04-15 05:35:00,
2013-04-14 22:41:00,42.7,38.2,29.99,SSW,211,1.0,5.0,84,0.00,,,0.05,WUHU216DAVISVP2,2013-04-15 05:41:00,
2013-04-14 22:46:00,42.5,38.3,29.99,South,169,0.0,5.0,85,0.00,,,0.05,WUHU216DAVISVP2,2013-04-15 05:46:00,
2013-04-14 22:51:00,42.4,38.2,29.99,SSW,198,1.0,4.0,85,0.00,,,0.05,WUHU216DAVISVP2,2013-04-15 05:51:00,
2013-04-14 22:56:00,42.3,38.1,29.99,SW,235,0.0,4.0,85,0.00,,,0.05,WUHU216DAVISVP2,2013-04-15 05:56:00,
2013-04-14 23:01:00,42.2,38.3,29.99,ESE,115,0.0,3.0,86,0.00,,,0.05,WUHU216DAVISVP2,2013-04-15 06:01:00,
2013-04-14 23:06:00,42.1,38.2,29.99,SSE,158,1.0,3.0,86,0.00,,,0.05,WUHU216DAVISVP2,2013-04-15 06:06:00,
2013-04-14 23:11:00,42.0,37.8,29.99,WSW,252,0.0,3.0,85,0.00,,,0.05,WUHU216DAVISVP2,2013-04-15 06:11:00,
2013-04-14 23:16:00,41.9,37.7,29.99,SW,218,0.0,2.0,85,0.00,,,0.05,WUHU216DAVISVP2,2013-04-15 06:16:00,
2013-04-14 23:21:00,41.8,37.6,29.99,SW,226,0.0,4.0,85,0.00,,,0.05,WUHU216DAVISVP2,2013-04-15 06:21:00,
2013-04-14 23:26:00,41.8,37.6,29.99,South,190,3.0,5.0,85,0.00,,,0.05,WUHU216DAVISVP2,2013-04-15 06:26:00,
2013-04-14 23:31:00,42.0,38.1,29.99,SW,234,2.0,8.0,86,0.00,,,0.05,WUHU216DAVISVP2,2013-04-15 06:31:00,
2013-04-14 23:36:00,42.0,38.1,29.99,South,186,2.0,8.0,86,0.00,,,0.05,WUHU216DAVISVP2,2013-04-15 06:36:00,
2013-04-14 23:41:00,42.1,38.2,29.99,West,279,1.0,7.0,86,0.00,,,0.05,WUHU216DAVISVP2,2013-04-15 06:41:00,
2013-04-14 23:46:00,42.0,38.1,29.99,WSW,248,6.0,7.0,86,0.00,,,0.05,WUHU216DAVISVP2,2013-04-15 06:46:00,
2013-04-14 23:51:00,41.9,38.0,29.99,South,185,1.0,7.0,86,0.00,,,0.05,WUHU216DAVISVP2,2013-04-15 06:51:00,
2013-04-14 23:56:00,41.8,37.9,29.99,SW,232,3.0,6.0,86,0.00,,,0.05,WUHU216DAVISVP2,2013-04-15 06:56:00,